Weather History for EHBK - November, 2012

Change the Weather History Date:

Thursday, November 29, 2012

  Actual Average Record
Temperature  
Mean Temperature 39 °F -  
Max Temperature 41 °F 42 °F 57 °F (2000)
Min Temperature 37 °F 33 °F 26 °F (2010)
Degree Days  
Heating Degree Days 26    
Moisture  
Dew Point 36 °F    
Average Humidity 87    
Maximum Humidity 100    
Minimum Humidity 59    
Precipitation  
Precipitation 0.00 in 0.10 in - ()
Sea Level Pressure  
Sea Level Pressure 29.69 in    
Wind  
Wind Speed 8 mph ()    
Max Wind Speed 12 mph    
Max Gust Speed -    
Visibility 7.1 miles    
Events      
Averages and records for this station are not official NWS values.
T = Trace of Precipitation, MM = Missing Value Source: Averaged Metar Reports

Daily Weather History Graph

Daily Weather History Graph

Search for Another Location

Airport or City:

Trip Planner

Search our weather history database for the weather conditions in past years. The results will help you decide how hot, cold, wet, or windy it might be!

Date:

Astronomy

Nov. 29, 2012 Rise Set
Actual Time 8:15 AM CET 4:35 PM CET
Civil Twilight 7:37 AM CET 5:13 PM CET
Nautical Twilight 6:55 AM CET 5:54 PM CET
Astronomical Twilight 6:15 AM CET 6:34 PM CET
Moon 5:24 PM CET (11/29) 8:50 AM CET (11/29)
Length of Visible Light 9h 36m
Length of Day
8h 19m
Full, 99% of the Moon is Illuminated
Nov 29
Full
Dec 6
Last Quarter
Dec 13
New
Dec 20
First Quarter
Dec 28
Full

Hourly Weather History & Observations

Time (CET) Temp. Windchill Dew Point Humidity Pressure Visibility Wind Dir Wind Speed Gust Speed Precip Events Conditions
12:25 AM 39.2 °F 33.0 °F 39.2 °F 100% 29.68 in 6.2 mi North 9.2 mph - N/A   Overcast
12:55 AM 39.2 °F 33.6 °F 39.2 °F 100% 29.68 in 6.2 mi North 8.1 mph - N/A   Overcast
1:00 AM 39 °F - 39 °F 99% 29.70 in 6 mi North 8.9 mph - -   Mist
1:25 AM 39.2 °F 32.0 °F 39.2 °F 100% 29.68 in 5.0 mi North 11.5 mph - N/A   Overcast
1:55 AM 39.2 °F 32.5 °F 39.2 °F 100% 29.68 in 6.2 mi North 10.4 mph - N/A   Mostly Cloudy
2:25 AM 39.2 °F 32.5 °F 39.2 °F 100% 29.68 in 6.2 mi North 10.4 mph - N/A   Mostly Cloudy
2:55 AM 39.2 °F 32.5 °F 37.4 °F 93% 29.65 in 6.2 mi North 10.4 mph - N/A   Overcast
3:25 AM 39.2 °F 32.0 °F 37.4 °F 93% 29.65 in 6.2 mi NNW 11.5 mph - N/A   Overcast
3:55 AM 39.2 °F 33.6 °F 37.4 °F 93% 29.65 in 6.2 mi NNW 8.1 mph - N/A   Overcast
4:00 AM 39 °F - 37 °F 92% 29.69 in 17 mi NNW 6.7 mph - -   Overcast
4:25 AM 39.2 °F 33.6 °F 37.4 °F 93% 29.65 in 6.2 mi NNW 8.1 mph - N/A   Mostly Cloudy
4:55 AM 39.2 °F 33.6 °F 37.4 °F 93% 29.65 in 6.2 mi NNW 8.1 mph - N/A   Mostly Cloudy
5:25 AM 39.2 °F 33.6 °F 37.4 °F 93% 29.65 in 6.2 mi NNW 8.1 mph - N/A   Mostly Cloudy
5:55 AM 39.2 °F 33.0 °F 39.2 °F 100% 29.65 in 6.2 mi NNW 9.2 mph - N/A   Mostly Cloudy
6:25 AM 39.2 °F 32.5 °F 39.2 °F 100% 29.65 in 6.2 mi NNW 10.4 mph - N/A   Mostly Cloudy
6:55 AM 39.2 °F 32.5 °F 37.4 °F 93% 29.65 in 6.2 mi NNW 10.4 mph - N/A   Mostly Cloudy
7:25 AM 39.2 °F 32.0 °F 37.4 °F 93% 29.65 in 6.2 mi NNW 11.5 mph - N/A   Mostly Cloudy
7:55 AM 39.2 °F 32.5 °F 37.4 °F 93% 29.65 in 6.2 mi NNW 10.4 mph - N/A   Overcast
8:25 AM 39.2 °F 33.0 °F 37.4 °F 93% 29.65 in 6.2 mi NNW 9.2 mph - N/A   Mostly Cloudy
8:55 AM 39.2 °F 33.6 °F 37.4 °F 93% 29.68 in 6.2 mi NNW 8.1 mph - N/A   Overcast
9:25 AM 39.2 °F 33.6 °F 37.4 °F 93% 29.68 in 6.2 mi NNW 8.1 mph - N/A   Overcast
9:55 AM 39.2 °F 34.2 °F 37.4 °F 93% 29.68 in 6.2 mi NNW 6.9 mph - N/A   Mostly Cloudy
10:00 AM 39 °F - 37 °F 91% 29.71 in 19 mi NW 6.7 mph - -   Overcast
10:25 AM 39.2 °F 33.6 °F 37.4 °F 93% 29.68 in 6.2 mi NNW 8.1 mph - N/A   Mostly Cloudy
10:55 AM 39.2 °F 33.6 °F 37.4 °F 93% 29.68 in 6.2 mi NW 8.1 mph - N/A   Mostly Cloudy
11:25 AM 39.2 °F 33.6 °F 37.4 °F 93% 29.68 in 6.2 mi NNW 8.1 mph - N/A   Overcast
11:55 AM 41.0 °F 34.7 °F 35.6 °F 81% 29.68 in 6.2 mi NW 10.4 mph - N/A   Overcast
12:25 PM 41.0 °F 34.7 °F 35.6 °F 81% 29.68 in 6.2 mi NNW 10.4 mph - N/A   Mostly Cloudy
12:55 PM 41.0 °F 34.3 °F 35.6 °F 81% 29.68 in 6.2 mi NNW 11.5 mph - N/A   Mostly Cloudy
1:00 PM 41 °F - 36 °F 76% 29.71 in 19 mi NNW 11.2 mph - -   Partly Cloudy
1:25 PM 41.0 °F 34.3 °F 35.6 °F 81% 29.68 in 6.2 mi NNW 11.5 mph - N/A   Mostly Cloudy
1:55 PM 39.2 °F 32.0 °F 35.6 °F 87% 29.68 in 6.2 mi NNW 11.5 mph - N/A   Mostly Cloudy
2:25 PM 41.0 °F 34.3 °F 35.6 °F 81% 29.68 in 6.2 mi NNW 11.5 mph - N/A   Unknown
2:55 PM 41.0 °F 34.3 °F 33.8 °F 76% 29.68 in 6.2 mi North 11.5 mph - N/A   Scattered Clouds
3:25 PM 41.0 °F 35.2 °F 32.0 °F 70% 29.68 in 6.2 mi NNW 9.2 mph - N/A   Mostly Cloudy
3:55 PM 41.0 °F 35.8 °F 32.0 °F 70% 29.68 in 6.2 mi NNW 8.1 mph - N/A   Mostly Cloudy
4:00 PM 41 °F - 31 °F 59% 29.72 in 28 mi NNW 8.9 mph - -   Overcast
4:25 PM 41.0 °F 36.4 °F 32.0 °F 70% 29.68 in 6.2 mi NNW 6.9 mph - N/A   Mostly Cloudy
4:55 PM 39.2 °F 35.0 °F 32.0 °F 75% 29.71 in 6.2 mi NW 5.8 mph - N/A   Mostly Cloudy
5:25 PM 39.2 °F 35.0 °F 32.0 °F 75% 29.71 in 6.2 mi NNW 5.8 mph - N/A   Overcast
5:55 PM 39.2 °F 35.0 °F 32.0 °F 75% 29.71 in 6.2 mi NW 5.8 mph - N/A   Unknown
6:25 PM 39.2 °F 34.2 °F 32.0 °F 75% 29.71 in 6.2 mi NW 6.9 mph - N/A   Unknown
6:55 PM 39.2 °F 34.2 °F 32.0 °F 75% 29.71 in 6.2 mi NW 6.9 mph - N/A   Unknown
7:00 PM 39 °F - 33 °F 70% 29.75 in 28 mi NNW 6.7 mph - -   Partly Cloudy
7:25 PM 39.2 °F 34.2 °F 33.8 °F 81% 29.71 in 6.2 mi NNW 6.9 mph - N/A   Unknown
7:55 PM 37.4 °F 31.4 °F 33.8 °F 87% 29.71 in 6.2 mi NNW 8.1 mph - N/A   Partly Cloudy
8:25 PM 37.4 °F 32.8 °F 33.8 °F 87% 29.71 in 6.2 mi NNW 5.8 mph - N/A   Overcast
8:55 PM 37.4 °F 32.8 °F 33.8 °F 87% 29.71 in 6.2 mi NNW 5.8 mph - N/A   Unknown
9:25 PM 37.4 °F 32.8 °F 33.8 °F 87% 29.71 in 6.2 mi NNW 5.8 mph - N/A   Unknown
9:55 PM 37.4 °F 32.8 °F 33.8 °F 87% 29.74 in 6.2 mi NNW 5.8 mph - N/A   Partly Cloudy
10:00 PM 38 °F - 34 °F 81% 29.76 in 19 mi NNW 6.7 mph - -   Overcast
10:25 PM 37.4 °F 32.8 °F 33.8 °F 87% 29.74 in 6.2 mi NNW 5.8 mph - N/A   Scattered Clouds
10:55 PM 37.4 °F 32.8 °F 33.8 °F 87% 29.74 in 6.2 mi NNW 5.8 mph - N/A   Unknown
11:25 PM 37.4 °F 33.8 °F 35.6 °F 93% 29.74 in 6.2 mi NW 4.6 mph - N/A   Unknown
11:55 PM 37.4 °F 33.8 °F 33.8 °F 87% 29.74 in 6.2 mi NW 4.6 mph - N/A   Unknown